Year,Month,Day,Hour,Minute,Value (Times are PST for windspeed in km/hr)
2005,12,28,00,00,5.60
2005,12,28,00,01,2.30
2005,12,28,00,02,1.60
2005,12,28,00,03,1.80
2005,12,28,00,04,4.70
2005,12,28,00,05,5.30
2005,12,28,00,06,5.10
2005,12,28,00,07,5.60
2005,12,28,00,08,2.60
2005,12,28,00,09,5.60
2005,12,28,00,10,0.80
2005,12,28,00,11,1.60
2005,12,28,00,12,3.10
2005,12,28,00,13,4.00
2005,12,28,00,14,5.10
2005,12,28,00,15,5.00
2005,12,28,00,16,3.90
2005,12,28,00,17,4.70
2005,12,28,00,18,5.10
2005,12,28,00,19,4.70
2005,12,28,00,20,1.30
2005,12,28,00,21,6.40
2005,12,28,00,22,6.40
2005,12,28,00,23,4.00
2005,12,28,00,24,3.40
2005,12,28,00,25,5.10
2005,12,28,00,26,3.80
2005,12,28,00,27,4.10
2005,12,28,00,28,4.00
2005,12,28,00,29,6.00
2005,12,28,00,30,6.80
2005,12,28,00,31,6.30
2005,12,28,00,32,3.50
2005,12,28,00,33,6.00
2005,12,28,00,34,4.20
2005,12,28,00,35,7.90
2005,12,28,00,36,6.50
2005,12,28,00,37,6.30
2005,12,28,00,38,3.90
2005,12,28,00,39,5.30
2005,12,28,00,40,4.30
2005,12,28,00,41,3.00
2005,12,28,00,42,6.30
2005,12,28,00,43,6.10
2005,12,28,00,44,6.70
2005,12,28,00,45,8.60
2005,12,28,00,46,11.70
2005,12,28,00,47,14.50
2005,12,28,00,48,11.50
2005,12,28,00,49,7.80
2005,12,28,00,50,8.60
2005,12,28,00,51,11.40
2005,12,28,00,52,5.90
2005,12,28,00,53,8.50
2005,12,28,00,54,11.40
2005,12,28,00,55,11.00
2005,12,28,00,56,10.80
2005,12,28,00,57,14.80
2005,12,28,00,58,10.80
2005,12,28,00,59,7.10
2005,12,28,01,00,8.00
2005,12,28,01,01,9.60
2005,12,28,01,02,14.10
2005,12,28,01,03,11.10
2005,12,28,01,04,8.30
2005,12,28,01,05,11.10
2005,12,28,01,06,13.00
2005,12,28,01,07,9.00
2005,12,28,01,08,7.30
2005,12,28,01,09,8.10
2005,12,28,01,10,7.10
2005,12,28,01,11,5.70
2005,12,28,01,12,7.00
2005,12,28,01,13,9.20
2005,12,28,01,14,7.80
2005,12,28,01,15,6.70
2005,12,28,01,16,6.90
2005,12,28,01,17,2.50
2005,12,28,01,18,4.70
2005,12,28,01,19,5.40
2005,12,28,01,20,6.40
2005,12,28,01,21,3.90
2005,12,28,01,22,3.80
2005,12,28,01,23,5.90
2005,12,28,01,24,4.30
2005,12,28,01,25,5.30
2005,12,28,01,26,4.00
2005,12,28,01,27,0.00
2005,12,28,01,28,3.60
2005,12,28,01,29,2.60
2005,12,28,01,30,5.60
2005,12,28,01,31,5.20
2005,12,28,01,32,4.90
2005,12,28,01,33,4.70
2005,12,28,01,34,2.10
2005,12,28,01,35,3.50
2005,12,28,01,36,4.30
2005,12,28,01,37,4.20
2005,12,28,01,38,0.60
2005,12,28,01,39,4.10
2005,12,28,01,40,3.40
2005,12,28,01,41,3.00
2005,12,28,01,42,9.10
2005,12,28,01,43,8.80
2005,12,28,01,44,7.50
2005,12,28,01,45,6.40
2005,12,28,01,46,8.40
2005,12,28,01,47,4.00
2005,12,28,01,48,5.40
2005,12,28,01,49,5.80
2005,12,28,01,50,5.20
2005,12,28,01,51,6.00
2005,12,28,01,52,7.70
2005,12,28,01,53,6.90
2005,12,28,01,54,2.90
2005,12,28,01,55,4.30
2005,12,28,01,56,5.60
2005,12,28,01,57,5.50
2005,12,28,01,58,7.70
2005,12,28,01,59,8.60
2005,12,28,02,00,6.90
2005,12,28,02,01,5.30
2005,12,28,02,02,5.10
2005,12,28,02,03,4.40
2005,12,28,02,04,5.30
2005,12,28,02,05,4.50
2005,12,28,02,06,1.90
2005,12,28,02,07,1.40
2005,12,28,02,08,1.80
2005,12,28,02,09,1.80
2005,12,28,02,10,4.60
2005,12,28,02,11,4.80
2005,12,28,02,12,4.10
2005,12,28,02,13,6.80
2005,12,28,02,14,4.30
2005,12,28,02,15,6.70
2005,12,28,02,16,4.40
2005,12,28,02,17,4.20
2005,12,28,02,18,4.20
2005,12,28,02,19,7.60
2005,12,28,02,20,4.70
2005,12,28,02,21,3.40
2005,12,28,02,22,1.10
2005,12,28,02,23,0.20
2005,12,28,02,24,0.00
2005,12,28,02,25,0.90
2005,12,28,02,26,2.10
2005,12,28,02,27,3.90
2005,12,28,02,28,5.60
2005,12,28,02,29,6.00
2005,12,28,02,30,5.80
2005,12,28,02,31,3.50
2005,12,28,02,32,5.50
2005,12,28,02,33,7.30
2005,12,28,02,34,7.90
2005,12,28,02,35,6.30
2005,12,28,02,36,8.90
2005,12,28,02,37,5.80
2005,12,28,02,38,8.30
2005,12,28,02,39,6.90
2005,12,28,02,40,6.30
2005,12,28,02,41,4.50
2005,12,28,02,42,5.00
2005,12,28,02,43,3.20
2005,12,28,02,44,3.50
2005,12,28,02,45,2.30
2005,12,28,02,46,4.20
2005,12,28,02,47,7.80
2005,12,28,02,48,3.50
2005,12,28,02,49,6.60
2005,12,28,02,50,4.70
2005,12,28,02,51,7.60
2005,12,28,02,52,6.40
2005,12,28,02,53,6.40
2005,12,28,02,54,9.10
2005,12,28,02,55,6.40
2005,12,28,02,56,6.50
2005,12,28,02,57,4.50
2005,12,28,02,58,7.00
2005,12,28,02,59,5.10
2005,12,28,03,00,4.60
2005,12,28,03,01,7.50
2005,12,28,03,02,5.70
2005,12,28,03,03,5.20
2005,12,28,03,04,2.70
2005,12,28,03,05,5.90
2005,12,28,03,06,4.50
2005,12,28,03,07,5.50
2005,12,28,03,08,3.70
2005,12,28,03,09,5.10
2005,12,28,03,10,1.90
2005,12,28,03,11,1.40
2005,12,28,03,12,4.20
2005,12,28,03,13,5.70
2005,12,28,03,14,4.20
2005,12,28,03,15,3.00
2005,12,28,03,16,4.20
2005,12,28,03,17,6.00
2005,12,28,03,18,3.90
2005,12,28,03,19,3.80
2005,12,28,03,20,6.40
2005,12,28,03,21,4.10
2005,12,28,03,22,1.60
2005,12,28,03,23,2.40
2005,12,28,03,24,3.70
2005,12,28,03,25,3.20
2005,12,28,03,26,4.60
2005,12,28,03,27,3.70
2005,12,28,03,28,8.60
2005,12,28,03,29,1.70
2005,12,28,03,30,2.20
2005,12,28,03,31,4.80
2005,12,28,03,32,3.30
2005,12,28,03,33,4.50
2005,12,28,03,34,2.00
2005,12,28,03,35,6.00
2005,12,28,03,36,6.10
2005,12,28,03,37,2.20
2005,12,28,03,38,1.00
2005,12,28,03,39,0.10
2005,12,28,03,40,4.20
2005,12,28,03,41,4.10
2005,12,28,03,42,4.50
2005,12,28,03,43,5.60
2005,12,28,03,44,3.60
2005,12,28,03,45,3.80
2005,12,28,03,46,4.40
2005,12,28,03,47,6.70
2005,12,28,03,48,2.80
2005,12,28,03,49,2.60
2005,12,28,03,50,5.60
2005,12,28,03,51,3.00
2005,12,28,03,52,3.80
2005,12,28,03,53,3.40
2005,12,28,03,54,1.40
2005,12,28,03,55,0.00
2005,12,28,03,56,5.60
2005,12,28,03,57,4.50
2005,12,28,03,58,4.50
2005,12,28,03,59,1.20
2005,12,28,04,00,3.10
2005,12,28,04,01,3.40
2005,12,28,04,02,5.60
2005,12,28,04,03,3.80
2005,12,28,04,04,4.70
2005,12,28,04,05,3.90
2005,12,28,04,06,6.00
2005,12,28,04,07,7.20
2005,12,28,04,08,5.20
2005,12,28,04,09,1.70
2005,12,28,04,10,3.10
2005,12,28,04,11,2.50
2005,12,28,04,12,4.50
2005,12,28,04,13,4.60
2005,12,28,04,14,4.20
2005,12,28,04,15,3.50
2005,12,28,04,16,5.20
2005,12,28,04,17,4.70
2005,12,28,04,18,5.20
2005,12,28,04,19,4.20
2005,12,28,04,20,4.30
2005,12,28,04,21,0.00
2005,12,28,04,22,0.70
2005,12,28,04,23,6.90
2005,12,28,04,24,3.20
2005,12,28,04,25,6.00
2005,12,28,04,26,9.60
2005,12,28,04,27,10.20
2005,12,28,04,28,7.00
2005,12,28,04,29,7.50
2005,12,28,04,30,7.30
2005,12,28,04,31,2.70
2005,12,28,04,32,0.80
2005,12,28,04,33,1.90
2005,12,28,04,34,0.50
2005,12,28,04,35,4.10
2005,12,28,04,36,1.80
2005,12,28,04,37,3.20
2005,12,28,04,38,2.60
2005,12,28,04,39,1.20
2005,12,28,04,40,3.40
2005,12,28,04,41,3.90
2005,12,28,04,42,5.70
2005,12,28,04,43,6.40
2005,12,28,04,44,5.80
2005,12,28,04,45,4.50
2005,12,28,04,46,6.50
2005,12,28,04,47,5.70
2005,12,28,04,48,6.10
2005,12,28,04,49,7.00
2005,12,28,04,50,7.30
2005,12,28,04,51,8.90
2005,12,28,04,52,8.30
2005,12,28,04,53,8.10
2005,12,28,04,54,6.20
2005,12,28,04,55,10.30
2005,12,28,04,56,8.60
2005,12,28,04,57,7.40
2005,12,28,04,58,10.00
2005,12,28,04,59,7.40
2005,12,28,05,00,7.80
2005,12,28,05,01,7.20
2005,12,28,05,02,6.00
2005,12,28,05,03,5.30
2005,12,28,05,04,4.30
2005,12,28,05,05,0.00
2005,12,28,05,06,2.40
2005,12,28,05,07,4.40
2005,12,28,05,08,1.40
2005,12,28,05,09,0.10
2005,12,28,05,10,3.10
2005,12,28,05,11,1.40
2005,12,28,05,12,1.70
2005,12,28,05,13,4.20
2005,12,28,05,14,2.20
2005,12,28,05,15,4.80
2005,12,28,05,16,5.60
2005,12,28,05,17,9.60
2005,12,28,05,18,7.80
2005,12,28,05,19,5.80
2005,12,28,05,20,5.90
2005,12,28,05,21,5.00
2005,12,28,05,22,7.60
2005,12,28,05,23,6.10
2005,12,28,05,24,9.30
2005,12,28,05,25,7.70
2005,12,28,05,26,13.00
2005,12,28,05,27,6.30
2005,12,28,05,28,7.00
2005,12,28,05,29,10.00
2005,12,28,05,30,8.40
2005,12,28,05,31,5.60
2005,12,28,05,32,7.10
2005,12,28,05,33,3.60
2005,12,28,05,34,6.00
2005,12,28,05,35,7.80
2005,12,28,05,36,3.50
2005,12,28,05,37,4.70
2005,12,28,05,38,6.20
2005,12,28,05,39,6.80
2005,12,28,05,40,10.60
2005,12,28,05,41,7.80
2005,12,28,05,42,4.30
2005,12,28,05,43,5.80
2005,12,28,05,44,4.30
2005,12,28,05,45,3.80
2005,12,28,05,46,4.50
2005,12,28,05,47,2.20
2005,12,28,05,48,3.40
2005,12,28,05,49,3.50
2005,12,28,05,50,4.60
2005,12,28,05,51,4.00
2005,12,28,05,52,2.40
2005,12,28,05,53,1.40
2005,12,28,05,54,2.30
2005,12,28,05,55,1.40
2005,12,28,05,56,1.40
2005,12,28,05,57,1.40
2005,12,28,05,58,3.50
2005,12,28,05,59,3.90
2005,12,28,06,00,3.00
2005,12,28,06,01,5.20
2005,12,28,06,02,4.90
2005,12,28,06,03,4.60
2005,12,28,06,04,2.40
2005,12,28,06,05,3.30
2005,12,28,06,06,6.40
2005,12,28,06,07,5.70
2005,12,28,06,08,5.20
2005,12,28,06,09,4.70
2005,12,28,06,10,4.20
2005,12,28,06,11,4.10
2005,12,28,06,12,6.80
2005,12,28,06,13,4.50
2005,12,28,06,14,5.70
2005,12,28,06,15,2.70
2005,12,28,06,16,3.40
2005,12,28,06,17,4.50
2005,12,28,06,18,2.00
2005,12,28,06,19,1.90
2005,12,28,06,20,4.20
2005,12,28,06,21,4.20
2005,12,28,06,22,4.70
2005,12,28,06,23,3.60
2005,12,28,06,24,1.30
2005,12,28,06,25,2.40
2005,12,28,06,26,0.80
2005,12,28,06,27,1.60
2005,12,28,06,28,1.80
2005,12,28,06,29,3.20
2005,12,28,06,30,6.60
2005,12,28,06,31,4.70
2005,12,28,06,32,6.90
2005,12,28,06,33,4.30
2005,12,28,06,34,3.10
2005,12,28,06,35,1.10
2005,12,28,06,36,1.50
2005,12,28,06,37,4.40
2005,12,28,06,38,6.20
2005,12,28,06,39,4.80
2005,12,28,06,40,5.00
2005,12,28,06,41,4.30
2005,12,28,06,42,2.70
2005,12,28,06,43,4.00
2005,12,28,06,44,1.60
2005,12,28,06,45,0.60
2005,12,28,06,46,3.80
2005,12,28,06,47,3.80
2005,12,28,06,48,5.30
2005,12,28,06,49,4.70
2005,12,28,06,50,3.40
2005,12,28,06,51,3.90
2005,12,28,06,52,3.10
2005,12,28,06,53,5.80
2005,12,28,06,54,7.50
2005,12,28,06,55,2.90
2005,12,28,06,56,2.50
2005,12,28,06,57,2.30
2005,12,28,06,58,0.40
2005,12,28,06,59,0.20
2005,12,28,07,00,0.70
2005,12,28,07,01,3.30
2005,12,28,07,02,1.80
2005,12,28,07,03,3.00
2005,12,28,07,04,3.40
2005,12,28,07,05,2.80
2005,12,28,07,06,6.20
2005,12,28,07,07,3.70
2005,12,28,07,08,3.10
2005,12,28,07,09,1.70
2005,12,28,07,10,5.60
2005,12,28,07,11,5.50
2005,12,28,07,12,6.00
2005,12,28,07,13,4.40
2005,12,28,07,14,4.30
2005,12,28,07,15,3.20
2005,12,28,07,16,3.80
2005,12,28,07,17,2.60
2005,12,28,07,18,1.50
2005,12,28,07,19,3.10
2005,12,28,07,20,2.40
2005,12,28,07,21,1.80
2005,12,28,07,22,3.60
2005,12,28,07,23,3.40
2005,12,28,07,24,7.10
2005,12,28,07,25,4.50
2005,12,28,07,26,4.70
2005,12,28,07,27,4.00
2005,12,28,07,28,4.40
2005,12,28,07,29,4.10
2005,12,28,07,30,7.60
2005,12,28,07,31,3.50
2005,12,28,07,32,9.40
2005,12,28,07,33,14.40
2005,12,28,07,34,8.30
2005,12,28,07,35,5.70
2005,12,28,07,36,6.40
2005,12,28,07,37,5.10
2005,12,28,07,38,6.00
2005,12,28,07,39,3.20
2005,12,28,07,40,3.50
2005,12,28,07,41,8.60
2005,12,28,07,42,8.10
2005,12,28,07,43,5.80
2005,12,28,07,44,8.10
2005,12,28,07,45,6.20
2005,12,28,07,46,12.20
2005,12,28,07,47,6.10
2005,12,28,07,48,6.80
2005,12,28,07,49,11.60
2005,12,28,07,50,9.00
2005,12,28,07,51,15.80
2005,12,28,07,52,8.80
2005,12,28,07,53,7.70
2005,12,28,07,54,7.70
2005,12,28,07,55,11.70
2005,12,28,07,56,7.60
2005,12,28,07,57,11.70
2005,12,28,07,58,6.50
2005,12,28,07,59,12.40
2005,12,28,08,00,12.20
2005,12,28,08,01,10.50
2005,12,28,08,02,14.40
2005,12,28,08,03,9.60
2005,12,28,08,04,5.50
2005,12,28,08,05,6.70
2005,12,28,08,06,9.20
2005,12,28,08,07,7.00
2005,12,28,08,08,5.90
2005,12,28,08,09,10.50
2005,12,28,08,10,11.40
2005,12,28,08,11,4.80
2005,12,28,08,12,6.40
2005,12,28,08,13,7.90
2005,12,28,08,14,8.40
2005,12,28,08,15,4.80
2005,12,28,08,16,3.20
2005,12,28,08,17,14.10
2005,12,28,08,18,13.70
2005,12,28,08,19,4.40
2005,12,28,08,20,6.50
2005,12,28,08,21,7.70
2005,12,28,08,22,7.80
2005,12,28,08,23,5.10
2005,12,28,08,24,9.10
2005,12,28,08,25,10.40
2005,12,28,08,26,7.80
2005,12,28,08,27,5.70
2005,12,28,08,28,2.50
2005,12,28,08,29,3.10
2005,12,28,08,30,11.70
2005,12,28,08,31,11.50
2005,12,28,08,32,10.70
2005,12,28,08,33,12.60
2005,12,28,08,34,12.40
2005,12,28,08,35,7.80
2005,12,28,08,36,3.60
2005,12,28,08,37,3.80
2005,12,28,08,38,4.70
2005,12,28,08,39,11.70
2005,12,28,08,40,1.00
2005,12,28,08,41,4.60
2005,12,28,08,42,10.00
2005,12,28,08,43,4.90
2005,12,28,08,44,2.70
2005,12,28,08,45,7.60
2005,12,28,08,46,7.20
2005,12,28,08,47,0.50
2005,12,28,08,48,3.10
2005,12,28,08,49,5.70
2005,12,28,08,50,1.90
2005,12,28,08,51,3.80
2005,12,28,08,52,5.20
2005,12,28,08,53,6.40
2005,12,28,08,54,1.50
2005,12,28,08,55,0.80
2005,12,28,08,56,1.80
2005,12,28,08,57,7.60
2005,12,28,08,58,9.60
2005,12,28,08,59,6.70
2005,12,28,09,00,6.70
2005,12,28,09,01,6.00
2005,12,28,09,02,8.10
2005,12,28,09,03,7.90
2005,12,28,09,04,5.00
2005,12,28,09,05,8.70
2005,12,28,09,06,2.30
2005,12,28,09,07,5.70
2005,12,28,09,08,5.10
2005,12,28,09,09,9.10
2005,12,28,09,10,13.40
2005,12,28,09,11,11.00
2005,12,28,09,12,3.50
2005,12,28,09,13,6.40
2005,12,28,09,14,6.40
2005,12,28,09,15,13.10
2005,12,28,09,16,9.50
2005,12,28,09,17,5.00
2005,12,28,09,18,3.80
2005,12,28,09,19,4.40
2005,12,28,09,20,3.20
2005,12,28,09,21,3.20
2005,12,28,09,22,11.60
2005,12,28,09,23,8.20
2005,12,28,09,24,10.40
2005,12,28,09,25,6.40
2005,12,28,09,26,12.50
2005,12,28,09,27,9.80
2005,12,28,09,28,1.10
2005,12,28,09,29,0.20
2005,12,28,09,30,4.80
2005,12,28,09,31,7.00
2005,12,28,09,32,4.40
2005,12,28,09,33,4.80
2005,12,28,09,34,11.40
2005,12,28,09,35,4.60
2005,12,28,09,36,1.30
2005,12,28,09,37,7.40
2005,12,28,09,38,16.10
2005,12,28,09,39,10.50
2005,12,28,09,40,7.50
2005,12,28,09,41,10.50
2005,12,28,09,42,6.10
2005,12,28,09,43,6.30
2005,12,28,09,44,8.00
2005,12,28,09,45,6.90
2005,12,28,09,46,4.80
2005,12,28,09,47,2.60
2005,12,28,09,48,8.10
2005,12,28,09,49,5.30
2005,12,28,09,50,0.50
2005,12,28,09,51,6.70
2005,12,28,09,52,5.80
2005,12,28,09,53,20.90
2005,12,28,09,54,15.70
2005,12,28,09,55,27.40
2005,12,28,09,56,21.00
2005,12,28,09,57,10.80
2005,12,28,09,58,15.20
2005,12,28,09,59,12.00
2005,12,28,10,00,7.80
2005,12,28,10,01,11.30
2005,12,28,10,02,9.00
2005,12,28,10,03,8.90
2005,12,28,10,04,14.60
2005,12,28,10,05,18.50
2005,12,28,10,06,16.40
2005,12,28,10,07,15.10
2005,12,28,10,08,13.70
2005,12,28,10,09,15.30
2005,12,28,10,10,9.20
2005,12,28,10,11,12.00
2005,12,28,10,12,8.20
2005,12,28,10,13,17.10
2005,12,28,10,14,12.20
2005,12,28,10,15,16.30
2005,12,28,10,16,12.20
2005,12,28,10,17,9.40
2005,12,28,10,18,12.20
2005,12,28,10,19,15.00
2005,12,28,10,20,8.20
2005,12,28,10,21,5.60
2005,12,28,10,22,6.70
2005,12,28,10,23,10.70
2005,12,28,10,24,14.30
2005,12,28,10,25,13.60
2005,12,28,10,26,6.00
2005,12,28,10,27,5.30
2005,12,28,10,28,11.40
2005,12,28,10,29,16.10
2005,12,28,10,30,11.80
2005,12,28,10,31,2.70
2005,12,28,10,32,4.80
2005,12,28,10,33,4.80
2005,12,28,10,34,13.30
2005,12,28,10,35,13.60
2005,12,28,10,36,9.60
2005,12,28,10,37,10.80
2005,12,28,10,38,19.40
2005,12,28,10,39,10.80
2005,12,28,10,40,9.70
2005,12,28,10,41,5.00
2005,12,28,10,42,9.30
2005,12,28,10,43,12.90
2005,12,28,10,44,15.70
2005,12,28,10,45,7.70
2005,12,28,10,46,7.20
2005,12,28,10,47,15.40
2005,12,28,10,48,13.50
2005,12,28,10,49,8.50
2005,12,28,10,50,9.70
2005,12,28,10,51,12.20
2005,12,28,10,52,7.30
2005,12,28,10,53,2.80
2005,12,28,10,54,7.00
2005,12,28,10,55,8.60
2005,12,28,10,56,6.00
2005,12,28,10,57,4.70
2005,12,28,10,58,5.30
2005,12,28,10,59,9.30
2005,12,28,11,00,7.20
2005,12,28,11,01,7.50
2005,12,28,11,02,5.20
2005,12,28,11,03,8.40
2005,12,28,11,04,13.90
2005,12,28,11,05,9.10
2005,12,28,11,06,8.00
2005,12,28,11,07,12.90
2005,12,28,11,08,9.90
2005,12,28,11,09,9.30
2005,12,28,11,10,7.10
2005,12,28,11,11,5.70
2005,12,28,11,12,4.30
2005,12,28,11,13,3.30
2005,12,28,11,14,10.90
2005,12,28,11,15,6.70
2005,12,28,11,16,7.50
2005,12,28,11,17,7.20
2005,12,28,11,18,9.70
2005,12,28,11,19,4.90
2005,12,28,11,20,6.40
2005,12,28,11,21,9.70
2005,12,28,11,22,14.10
2005,12,28,11,23,15.00
2005,12,28,11,24,10.80
2005,12,28,11,25,15.50
2005,12,28,11,26,13.40
2005,12,28,11,27,13.70
2005,12,28,11,28,13.00
2005,12,28,11,29,9.20
2005,12,28,11,30,19.80
2005,12,28,11,31,13.40
2005,12,28,11,32,16.20
2005,12,28,11,33,12.60
2005,12,28,11,34,12.80
2005,12,28,11,35,16.10
2005,12,28,11,36,10.60
2005,12,28,11,37,6.90
2005,12,28,11,38,23.10
2005,12,28,11,39,21.60
2005,12,28,11,40,19.50
2005,12,28,11,41,14.50
2005,12,28,11,42,16.10
2005,12,28,11,43,17.30
2005,12,28,11,44,14.90
2005,12,28,11,45,9.80
2005,12,28,11,46,19.20
2005,12,28,11,47,24.30
2005,12,28,11,48,21.70
2005,12,28,11,49,18.40
2005,12,28,11,50,18.70
2005,12,28,11,51,13.20
2005,12,28,11,52,21.40
2005,12,28,11,53,15.80
2005,12,28,11,54,17.50
2005,12,28,11,55,13.20
2005,12,28,11,56,14.30
2005,12,28,11,57,21.60
2005,12,28,11,58,12.70
2005,12,28,11,59,14.20
2005,12,28,12,00,10.30
2005,12,28,12,01,15.90
2005,12,28,12,02,15.90
2005,12,28,12,03,18.70
2005,12,28,12,04,21.10
2005,12,28,12,05,22.10
2005,12,28,12,06,15.30
2005,12,28,12,07,19.10
2005,12,28,12,08,18.60
2005,12,28,12,09,11.70
2005,12,28,12,10,5.00
2005,12,28,12,11,13.10
2005,12,28,12,12,13.50
2005,12,28,12,13,11.90
2005,12,28,12,14,13.30
2005,12,28,12,15,8.50
2005,12,28,12,16,8.20
2005,12,28,12,17,9.70
2005,12,28,12,18,9.20
2005,12,28,12,19,13.40
2005,12,28,12,20,21.20
2005,12,28,12,21,17.20
2005,12,28,12,22,16.30
2005,12,28,12,23,16.30
2005,12,28,12,24,10.70
2005,12,28,12,25,14.50
2005,12,28,12,26,14.00
2005,12,28,12,27,8.50
2005,12,28,12,28,15.70
2005,12,28,12,29,16.30
2005,12,28,12,30,12.90
2005,12,28,12,31,13.90
2005,12,28,12,32,11.60
2005,12,28,12,33,11.90
2005,12,28,12,34,10.30
2005,12,28,12,35,9.10
2005,12,28,12,36,9.70
2005,12,28,12,37,17.20
2005,12,28,12,38,12.20
2005,12,28,12,39,18.20
2005,12,28,12,40,8.60
2005,12,28,12,41,16.60
2005,12,28,12,42,15.60
2005,12,28,12,43,7.30
2005,12,28,12,44,13.30
2005,12,28,12,45,10.80
2005,12,28,12,46,7.50
2005,12,28,12,47,10.20
2005,12,28,12,48,7.40
2005,12,28,12,49,9.20
2005,12,28,12,50,11.30
2005,12,28,12,51,16.70
2005,12,28,12,52,23.20
2005,12,28,12,53,22.00
2005,12,28,12,54,14.70
2005,12,28,12,55,23.10
2005,12,28,12,56,14.60
2005,12,28,12,57,9.10
2005,12,28,12,58,8.10
2005,12,28,12,59,15.60
2005,12,28,13,00,15.80
2005,12,28,13,01,17.10
2005,12,28,13,02,13.30
2005,12,28,13,03,13.20
2005,12,28,13,04,13.80
2005,12,28,13,05,14.60
2005,12,28,13,06,13.80
2005,12,28,13,07,18.90
2005,12,28,13,08,18.40
2005,12,28,13,09,14.90
2005,12,28,13,10,15.40
2005,12,28,13,11,17.00
2005,12,28,13,12,16.30
2005,12,28,13,13,20.00
2005,12,28,13,14,16.70
2005,12,28,13,15,17.90
2005,12,28,13,16,21.00
2005,12,28,13,17,13.80
2005,12,28,13,18,12.80
2005,12,28,13,19,14.30
2005,12,28,13,20,14.70
2005,12,28,13,21,13.10
2005,12,28,13,22,10.50
2005,12,28,13,23,9.40
2005,12,28,13,24,12.20
2005,12,28,13,25,7.30
2005,12,28,13,26,17.90
2005,12,28,13,27,18.00
2005,12,28,13,28,15.70
2005,12,28,13,29,14.70
2005,12,28,13,30,13.80
2005,12,28,13,31,9.50
2005,12,28,13,32,8.10
2005,12,28,13,33,14.20
2005,12,28,13,34,9.70
2005,12,28,13,35,6.30
2005,12,28,13,36,6.40
2005,12,28,13,37,6.40
2005,12,28,13,38,10.50
2005,12,28,13,39,13.40
2005,12,28,13,40,15.40
2005,12,28,13,41,15.80
2005,12,28,13,42,18.90
2005,12,28,13,43,12.80
2005,12,28,13,44,13.30
2005,12,28,13,45,16.00
2005,12,28,13,46,12.30
2005,12,28,13,47,8.80
2005,12,28,13,48,11.40
2005,12,28,13,49,10.70
2005,12,28,13,50,15.20
2005,12,28,13,51,12.00
2005,12,28,13,52,5.30
2005,12,28,13,53,7.00
2005,12,28,13,54,9.00
2005,12,28,13,55,6.80
2005,12,28,13,56,8.90
2005,12,28,13,57,8.10
2005,12,28,13,58,13.20
2005,12,28,13,59,15.10
2005,12,28,14,00,17.40
2005,12,28,14,01,16.10
2005,12,28,14,02,15.00
2005,12,28,14,03,16.50
2005,12,28,14,04,8.50
2005,12,28,14,05,7.80
2005,12,28,14,06,15.50
2005,12,28,14,07,9.30
2005,12,28,14,08,11.40
2005,12,28,14,09,9.60
2005,12,28,14,10,9.10
2005,12,28,14,11,14.00
2005,12,28,14,12,13.00
2005,12,28,14,13,11.70
2005,12,28,14,14,8.50
2005,12,28,14,15,10.40
2005,12,28,14,16,9.70
2005,12,28,14,17,15.20
2005,12,28,14,18,7.40
2005,12,28,14,19,8.60
2005,12,28,14,20,3.60
2005,12,28,14,21,4.00
2005,12,28,14,22,10.60
2005,12,28,14,23,7.00
2005,12,28,14,24,3.60
2005,12,28,14,25,8.60
2005,12,28,14,26,6.30
2005,12,28,14,27,14.20
2005,12,28,14,28,9.90
2005,12,28,14,29,6.40
2005,12,28,14,30,6.40
2005,12,28,14,31,6.40
2005,12,28,14,32,8.90
2005,12,28,14,33,7.70
2005,12,28,14,34,6.30
2005,12,28,14,35,6.10
2005,12,28,14,36,7.20
2005,12,28,14,37,5.60
2005,12,28,14,38,2.80
2005,12,28,14,39,7.70
2005,12,28,14,40,8.90
2005,12,28,14,41,10.30
2005,12,28,14,42,14.20
2005,12,28,14,43,8.40
2005,12,28,14,44,8.00
2005,12,28,14,45,6.80
2005,12,28,14,46,8.40
2005,12,28,14,47,10.00
2005,12,28,14,48,7.90
2005,12,28,14,49,11.80
2005,12,28,14,50,8.80
2005,12,28,14,51,10.50
2005,12,28,14,52,10.40
2005,12,28,14,53,10.00
2005,12,28,14,54,9.10
2005,12,28,14,55,9.40
2005,12,28,14,56,5.20
2005,12,28,14,57,6.60
2005,12,28,14,58,8.10
2005,12,28,14,59,8.10
2005,12,28,15,00,8.70
2005,12,28,15,01,8.10
2005,12,28,15,02,10.20
2005,12,28,15,03,6.70
2005,12,28,15,04,5.30
2005,12,28,15,05,4.20
2005,12,28,15,06,5.30
2005,12,28,15,07,6.30
2005,12,28,15,08,10.10
2005,12,28,15,09,8.90
2005,12,28,15,10,4.20
2005,12,28,15,11,5.20
2005,12,28,15,12,7.20
2005,12,28,15,13,10.10
2005,12,28,15,14,7.60
2005,12,28,15,15,4.40
2005,12,28,15,16,7.70
2005,12,28,15,17,6.70
2005,12,28,15,18,12.20
2005,12,28,15,19,11.90
2005,12,28,15,20,5.90
2005,12,28,15,21,9.00
2005,12,28,15,22,4.70
2005,12,28,15,23,7.10
2005,12,28,15,24,7.60
2005,12,28,15,25,6.40
2005,12,28,15,26,7.60
2005,12,28,15,27,11.50
2005,12,28,15,28,8.50
2005,12,28,15,29,4.50
2005,12,28,15,30,4.30
2005,12,28,15,31,11.90
2005,12,28,15,32,7.50
2005,12,28,15,33,12.40
2005,12,28,15,34,8.40
2005,12,28,15,35,4.40
2005,12,28,15,36,8.00
2005,12,28,15,37,4.30
2005,12,28,15,38,7.10
2005,12,28,15,39,11.40
2005,12,28,15,40,12.60
2005,12,28,15,41,11.70
2005,12,28,15,42,11.90
2005,12,28,15,43,9.20
2005,12,28,15,44,12.60
2005,12,28,15,45,11.70
2005,12,28,15,46,7.70
2005,12,28,15,47,13.40
2005,12,28,15,48,6.90
2005,12,28,15,49,8.10
2005,12,28,15,50,9.30
2005,12,28,15,51,14.70
2005,12,28,15,52,15.40
2005,12,28,15,53,19.10
2005,12,28,15,54,13.00
2005,12,28,15,55,14.70
2005,12,28,15,56,17.90
2005,12,28,15,57,18.70
2005,12,28,15,58,20.20
2005,12,28,15,59,17.90
2005,12,28,16,00,18.20
2005,12,28,16,01,15.90
2005,12,28,16,02,19.10
2005,12,28,16,03,11.30
2005,12,28,16,04,17.30
2005,12,28,16,05,10.90
2005,12,28,16,06,11.70
2005,12,28,16,07,7.80
2005,12,28,16,08,5.20
2005,12,28,16,09,5.00
2005,12,28,16,10,10.50
2005,12,28,16,11,9.20
2005,12,28,16,12,14.70
2005,12,28,16,13,7.60
2005,12,28,16,14,9.20
2005,12,28,16,15,6.50
2005,12,28,16,16,13.90
2005,12,28,16,17,12.20
2005,12,28,16,18,11.80
2005,12,28,16,19,9.20
2005,12,28,16,20,8.40
2005,12,28,16,21,5.90
2005,12,28,16,22,8.20
2005,12,28,16,23,6.00
2005,12,28,16,24,6.60
2005,12,28,16,25,7.30
2005,12,28,16,26,10.40
2005,12,28,16,27,7.00
2005,12,28,16,28,5.40
2005,12,28,16,29,10.70
2005,12,28,16,30,3.70
2005,12,28,16,31,1.80
2005,12,28,16,32,2.30
2005,12,28,16,33,0.80
2005,12,28,16,34,4.30
2005,12,28,16,35,5.70
2005,12,28,16,36,4.90
2005,12,28,16,37,3.90
2005,12,28,16,38,3.70
2005,12,28,16,39,6.40
2005,12,28,16,40,6.80
2005,12,28,16,41,4.90
2005,12,28,16,42,0.50
2005,12,28,16,43,7.20
2005,12,28,16,44,3.20
2005,12,28,16,45,0.70
2005,12,28,16,46,4.70
2005,12,28,16,47,5.90
2005,12,28,16,48,8.20
2005,12,28,16,49,5.30
2005,12,28,16,50,2.10
2005,12,28,16,51,0.70
2005,12,28,16,52,7.00
2005,12,28,16,53,3.20
2005,12,28,16,54,0.80
2005,12,28,16,55,6.00
2005,12,28,16,56,0.70
2005,12,28,16,57,2.00
2005,12,28,16,58,1.00
2005,12,28,16,59,1.60
2005,12,28,17,00,1.60
2005,12,28,17,01,0.80
2005,12,28,17,02,2.60
2005,12,28,17,03,3.00
2005,12,28,17,04,1.90
2005,12,28,17,05,1.00
2005,12,28,17,06,0.10
2005,12,28,17,07,2.70
2005,12,28,17,08,2.20
2005,12,28,17,09,0.00
2005,12,28,17,10,0.80
2005,12,28,17,11,4.00
2005,12,28,17,12,1.40
2005,12,28,17,13,1.00
2005,12,28,17,14,2.30
2005,12,28,17,15,3.10
2005,12,28,17,16,1.60
2005,12,28,17,17,0.60
2005,12,28,17,18,0.20
2005,12,28,17,19,0.00
2005,12,28,17,20,2.50
2005,12,28,17,21,5.70
2005,12,28,17,22,4.90
2005,12,28,17,23,2.40
2005,12,28,17,24,2.10
2005,12,28,17,25,0.00
2005,12,28,17,26,4.80
2005,12,28,17,27,1.40
2005,12,28,17,28,0.90
2005,12,28,17,29,1.00
2005,12,28,17,30,0.60
2005,12,28,17,31,0.20
2005,12,28,17,32,0.40
2005,12,28,17,33,1.50
2005,12,28,17,34,1.40
2005,12,28,17,35,1.40
2005,12,28,17,36,1.10
2005,12,28,17,37,0.80
2005,12,28,17,38,3.30
2005,12,28,17,39,1.80
2005,12,28,17,40,0.00
2005,12,28,17,41,2.60
2005,12,28,17,42,2.30
2005,12,28,17,43,1.80
2005,12,28,17,44,1.00
2005,12,28,17,45,0.80
2005,12,28,17,46,2.90
2005,12,28,17,47,0.00
2005,12,28,17,48,0.00
2005,12,28,17,49,0.00
2005,12,28,17,50,0.00
2005,12,28,17,51,1.30
2005,12,28,17,52,3.20
2005,12,28,17,53,2.90
2005,12,28,17,54,0.00